HG8GL Weather Reports


time (UTC)temp
C
wind
direction
speed
KPH
gust
KPH
rain 1hr
cm
rain 24hr
cm
rain mn
cm
humidity
%
barometer
mb
20260504204009 14 158 0.0 0.0 0.00 0.00 0.00 37 1016.0
20260504203509 14 158 0.0 0.0 0.00 0.00 0.00 37 1016.0
20260504203009 14 158 0.0 0.0 0.00 0.00 0.00 37 1016.0
20260504202509 14 158 0.0 0.0 0.00 0.00 0.00 37 1016.0
20260504201008 14 158 0.0 0.0 0.00 0.00 0.00 37 1016.0
20260504200008 15 158 0.0 0.0 0.00 0.00 0.00 37 1016.0
20260504195508 15 158 0.0 0.0 0.00 0.00 0.00 36 1016.0
20260504195009 15 146 0.0 0.0 0.00 0.00 0.00 36 1016.0
20260504194509 15 158 0.0 0.0 0.00 0.00 0.00 35 1016.0
20260504194009 15 158 0.0 0.0 0.00 0.00 0.00 35 1016.0
20260504193508 15 158 0.0 0.0 0.00 0.00 0.00 35 1016.0
20260504193010 15 158 0.0 0.0 0.00 0.00 0.00 35 1016.0
20260504192508 15 158 0.0 0.0 0.00 0.00 0.00 35 1016.0
20260504191507 16 158 0.0 0.0 0.00 0.00 0.00 34 1016.0
20260504191008 16 161 0.0 0.0 0.00 0.00 0.00 34 1016.0
20260504190009 16 158 0.0 0.0 0.00 0.00 0.00 34 1016.0
20260504185507 17 158 0.0 0.0 0.00 0.00 0.00 33 1016.0
20260504184807 17 158 0.0 0.0 0.00 0.00 0.00 32 1016.0
20260504184009 17 158 0.0 0.0 0.00 0.00 0.00 31 1015.9
20260504183509 18 158 0.0 0.0 0.00 0.00 0.00 30 1015.0
20260504182509 18 158 0.0 0.0 0.00 0.00 0.00 29 1015.1
20260504181507 19 158 0.0 0.0 0.00 0.00 0.00 27 1016.0
20260504181008 20 158 0.0 0.0 0.00 0.00 0.00 27 1016.0
20260504180007 20 158 0.0 0.0 0.00 0.00 0.00 26 1016.0
20260504175509 20 158 0.0 0.0 0.00 0.00 0.00 26 1015.8
20260504175008 20 158 0.0 0.0 0.00 0.00 0.00 26 1015.0
20260504174508 21 158 0.0 0.0 0.00 0.00 0.00 25 1015.0
20260504174008 21 158 0.0 0.0 0.00 0.00 0.00 25 1015.0
20260504173508 21 158 0.0 0.0 0.00 0.00 0.00 25 1015.0
20260504173010 22 158 0.0 0.0 0.00 0.00 0.00 24 1015.0
20260504172009 22 158 0.0 0.0 0.00 0.00 0.00 24 1015.0
20260504171508 22 158 0.0 0.0 0.00 0.00 0.00 24 1015.0
20260504171009 23 149 0.0 0.0 0.00 0.00 0.00 23 1015.0
20260504151009 27 165 0.0 0.0 0.00 0.00 0.00 20 1015.2
20260504141011 27 97 0.0 0.0 0.00 0.00 0.00 20 1016.0
20260504081510 22 173 0.0 0.0 0.00 0.00 0.00 32 1020.0
20260504050007 7 158 0.0 0.0 0.00 0.00 0.00 66 1020.0
20260504045508 7 158 0.0 0.0 0.00 0.00 0.00 66 1020.0
20260504045008 7 158 0.0 0.0 0.00 0.00 0.00 66 1020.0
20260504044508 6 158 0.0 0.0 0.00 0.00 0.00 67 1020.0
20260504044009 6 202 0.0 0.0 0.00 0.00 0.00 67 1020.0
20260504043509 6 225 0.0 0.0 0.00 0.00 0.00 67 1020.0
20260504043008 6 248 0.0 0.0 0.00 0.00 0.00 67 1020.0
20260504042508 6 248 0.0 0.0 0.00 0.00 0.00 67 1019.9
20260504042008 6 248 0.0 0.0 0.00 0.00 0.00 66 1019.0
20260504041508 6 248 0.0 0.0 0.00 0.00 0.00 66 1019.0
20260504041008 6 248 0.0 0.0 0.00 0.00 0.00 66 1019.0
20260504040008 6 248 0.0 0.0 0.00 0.00 0.00 66 1019.0
20260504034507 6 185 0.0 0.0 0.00 0.00 0.00 65 1019.0
20260504034008 6 158 0.0 0.0 0.00 0.00 0.00 65 1019.1
20260504033509 6 158 0.0 0.0 0.00 0.00 0.00 65 1020.0
20260504033009 6 158 0.0 0.0 0.00 0.00 0.00 64 1020.0
20260504032508 6 158 0.0 0.0 0.00 0.00 0.00 63 1019.9
20260504032008 6 158 0.0 0.0 0.00 0.00 0.00 63 1019.0
20260504031508 6 158 0.0 0.0 0.00 0.00 0.00 63 1019.0
20260504031008 6 158 0.0 0.0 0.00 0.00 0.00 62 1019.1
20260504030007 6 248 0.0 0.0 0.00 0.00 0.00 61 1020.0
20260504025507 6 248 0.0 0.0 0.00 0.00 0.00 61 1019.9
20260504025008 6 248 0.0 0.0 0.00 0.00 0.00 60 1019.0
20260504024507 6 248 0.0 0.0 0.00 0.00 0.00 60 1019.0
20260504024008 6 248 0.0 0.0 0.00 0.00 0.00 59 1019.1
20260504023508 7 248 0.0 0.0 0.00 0.00 0.00 59 1020.0
20260504023008 7 248 0.0 0.0 0.00 0.00 0.00 58 1020.0
20260504022507 7 248 0.0 0.0 0.00 0.00 0.00 57 1019.9
20260504022008 7 248 0.0 0.0 0.00 0.00 0.00 57 1019.0
20260504021507 7 248 0.0 0.0 0.00 0.00 0.00 57 1019.0
20260504021009 7 248 0.0 0.0 0.00 0.00 0.00 56 1019.0
20260504020007 7 248 0.0 0.0 0.00 0.00 0.00 56 1019.0
20260504015507 7 248 0.0 0.0 0.00 0.00 0.00 56 1019.0
20260504015008 7 214 0.0 0.0 0.00 0.00 0.00 55 1019.0
20260504014508 7 248 0.0 0.0 0.00 0.00 0.00 55 1019.0
20260504014008 7 248 0.0 0.0 0.00 0.00 0.00 55 1019.0
20260504013008 7 248 0.0 0.0 0.00 0.00 0.00 54 1019.0
20260504012508 7 248 0.0 0.0 0.00 0.00 0.00 54 1019.0
20260504012008 7 248 0.0 0.0 0.00 0.00 0.00 53 1019.0
20260504011509 7 248 0.0 0.0 0.00 0.00 0.00 52 1019.0
20260504011008 7 248 0.0 0.0 0.00 0.00 0.00 52 1019.0
20260504005009 8 158 0.0 0.0 0.00 0.00 0.00 51 1019.0
20260504004508 8 158 0.0 0.0 0.00 0.00 0.00 51 1019.0
20260504004009 8 158 0.0 0.0 0.00 0.00 0.00 51 1019.0
20260504003009 8 202 0.0 0.0 0.00 0.00 0.00 49 1019.0
20260504002508 9 204 0.0 0.0 0.00 0.00 0.00 49 1019.0
20260504002008 9 225 0.0 0.0 0.00 0.00 0.00 49 1019.0
20260504001508 9 225 0.0 0.0 0.00 0.00 0.00 49 1019.0
20260504001008 9 225 0.0 0.0 0.00 0.00 0.00 49 1019.1
20260504000008 10 225 0.0 0.0 0.00 0.00 0.00 48 1020.0
20260503235508 10 225 0.0 0.0 0.00 0.00 0.00 48 1019.9
20260503235008 10 225 0.0 0.0 0.00 0.00 0.00 48 1019.0
20260503234507 10 240 0.0 0.0 0.00 0.00 0.00 47 1019.0
20260503234008 10 242 0.0 0.0 0.00 0.00 0.00 47 1019.0
20260503233510 10 229 0.0 0.0 0.00 0.00 0.00 47 1019.0
20260503233008 10 241 0.0 0.0 0.00 0.00 0.00 47 1019.0
20260503232507 10 223 0.0 0.0 0.00 0.00 0.00 47 1019.0
20260503232010 10 228 0.0 0.0 0.00 0.00 0.00 47 1019.0
20260503230008 11 210 0.0 0.0 0.00 0.00 0.00 47 1019.0
20260503225507 11 218 0.0 0.0 0.00 0.00 0.00 47 1019.0
20260503225010 11 226 0.0 0.0 0.00 0.00 0.00 47 1019.0
20260503224509 11 230 0.0 0.0 0.00 0.00 0.00 47 1019.0
20260503224010 11 219 0.0 0.0 0.00 0.00 0.00 46 1019.2
20260503223508 11 225 0.0 0.0 0.00 0.00 0.00 46 1020.0
20260503222508 11 202 0.0 0.0 0.00 0.00 0.00 46 1019.9
20260503222009 11 212 0.0 0.0 0.00 0.00 0.00 46 1019.0
20260503221008 11 206 0.0 0.0 0.00 0.00 0.00 46 1019.1
20260503220010 11 190 0.0 0.0 0.00 0.00 0.00 46 1020.0
20260503215009 11 163 0.0 0.0 0.00 0.00 0.00 46 1020.0
20260503214510 11 164 0.0 0.0 0.00 0.00 0.00 46 1020.0
20260503214010 11 179 0.0 0.0 0.00 0.00 0.00 46 1019.9
20260503213007 11 189 0.0 0.0 0.00 0.00 0.00 46 1019.0
20260503212507 11 183 0.0 0.0 0.00 0.00 0.00 46 1019.1
20260503212009 11 192 0.0 0.0 0.00 0.00 0.00 46 1020.0
20260503211508 11 202 0.0 0.0 0.00 0.00 0.00 46 1020.0
20260503211010 11 201 0.0 0.0 0.00 0.00 0.00 46 1020.0
20260503210010 11 201 0.0 0.0 0.00 0.00 0.00 46 1020.0
20260503205510 11 190 0.0 0.0 0.00 0.00 0.00 46 1019.9
20260503205010 11 185 0.0 0.0 0.00 0.00 0.00 46 1019.0